Regional Weather Roundup
Issued by NWS Green Bay, WI

Home | Current Version | Previous Version | Text Only | Print | Product List | Glossary On
Versions: 1 2 3 4 5 6 7 8 9 10 11 12 13 14 15 16 17 18 19 20 21 22 23 24 25 26 27 28 29 30 31 32 33 34 35 36 37 38 39 40 41 42 43 44 45 46 47 48 49 50
000
ASUS43 KGRB 190600
RWRGRB

NORTH-CENTRAL AND NORTHEAST WISCONSIN REGIONAL WEATHER ROUNDUP
NATIONAL WEATHER SERVICE GREEN BAY WI
1200 AM CST THU JAN 19 2017

WIZ005-009-010>012-018-019-190700-
NORTH CENTRAL WISCONSIN

CITY           SKY/WX    TMP DP  RH WIND       PRES   REMARKS
IRONWOOD       CLEAR     33  29  85 CALM      29.82F
MANITOWISH WTR NOT AVBL
ARBOR VITAE    NOT AVBL
EAGLE RIVER    NOT AVBL
LAND O LAKES   NOT AVBL
RHINELANDER    CLOUDY    30  28  92 SW8       29.85F FOG
PHILLIPS       CLOUDY    28  28 100 SW3       29.84F FOG
ANTIGO         NOT AVBL
TOMAHAWK       NOT AVBL
MERRILL        CLOUDY    29  29 100 SW3         N/A  FOG
$$

WIZ013-073-190700-
NORTHEAST WISCONSIN

CITY           SKY/WX    TMP DP  RH WIND       PRES   REMARKS
IRON MOUNTAIN  CLOUDY    21  19  92 CALM      29.84F FOG
MARINETTE      NOT AVBL
$$

WIZ017-030-035>037-045-190700-
CENTRAL WISCONSIN

CITY           SKY/WX    TMP DP  RH WIND       PRES   REMARKS
MEDFORD        NOT AVBL
WAUSAU         CLOUDY    28  27  96 SW3       29.89S FOG
MOSINEE        NOT AVBL
MARSHFIELD     CLOUDY    27  26  96 S5        29.88F FOG
WISC RAPIDS    CLOUDY    29  29 100 SW7       29.93F FOG
STEVENS POINT  NOT AVBL
WAUPACA        NOT AVBL
SHAWANO        NOT AVBL
CLINTONVILLE   CLOUDY    32  30  93 SW7       29.91F
WAUTOMA        CLOUDY    31  30  96 SW6       29.95S FOG
$$

WIZ038-039-048-051-190700-
FOX VALLEY

CITY           SKY/WX    TMP DP  RH WIND       PRES   REMARKS
NWS GREEN BAY  CLOUDY    34  31  88 SW6       29.93S
APPLETON       NOT AVBL
OSHKOSH        CLOUDY    32  29  88 SW9       29.95S FOG
FOND DU LAC    CLOUDY    33  29  85 SW14G24   29.96S FOG
$$

WIZ022-050-052-190700-
EAST CENTRAL WISCONSIN

CITY           SKY/WX    TMP DP  RH WIND       PRES   REMARKS
EPHRAIM        NOT AVBL
WASHINGTON ISL NOT AVBL
STURGEON BAY   CLEAR     32  29  88 SW9       29.93R
MANITOWOC      NOT AVBL
SHEBOYGAN      PTCLDY    32  29  88 SW9       29.96S
$$

LMZ563-521-522-541>543-190700-
LAKESHORE

STATION/POSITION TIME  TEMP    WIND        PRES    VSBY  WAVE
                       AIR SEA DIR/SP/G                  HT/PER
                 (UTC) (F)     (DEG/KT/KT) (MB)    (MI)  (FT/S)
SHEBOYGAN LKSHOR 0500   33     220/  9/ 11 1015.2F
KEWAUNEE LKSHORE 0530   33     190/  7/  7 1013.7R
NORTHPORT PIER   0540   33     160/  3/  5 1012.9S
SISTER BAY LKSHO 0520   34     230/  8/ 10   N/A
MENOMINEE LKSHOR 0530          180/  7/  9 1012.1S
$$




USA.gov is the U.S. government's official web portal to all federal, state and local government web resources and services.